Portland, ME

8:06 AM EDT on April 30, 2017 (GMT -0400)
Portland International

Weather History for KPWM - August, 2014

Change the Weather History Date:

Thursday, August 14, 2014

  Actual Average Record
Temperature  
Mean Temperature 66 °F 68 °F  
Max Temperature 75 °F 78 °F 96 °F (1947)
Min Temperature 57 °F 59 °F 40 °F (1964)
Degree Days  
Heating Degree Days 0 1  
Month to date heating degree days 1 5  
Since 1 June heating degree days 78 128  
Since 1 July heating degree days 1 22  
Cooling Degree Days 1 4  
Month to date cooling degree days 43 64  
Year to date cooling degree days 258 272  
Since 1 June cooling degree days 258 265  
Growing Degree Days 18 (Base 50)    
Moisture  
Dew Point 58 °F    
Average Humidity 72    
Maximum Humidity 100    
Minimum Humidity 44    
Precipitation  
Precipitation 0.01 in 0.10 in 2.32 in (1920)
Month to date precipitation 7.11 1.46  
Year to date precipitation 36.75 28.06  
Snow  
Snow 0.00 in 0.00 in 0.00 in (2002)
Month to date snowfall 0.0 0.0  
Since 1 June snowfall 0.0 0.0  
Since 1 July snowfall 0.0 0.0  
Snow Depth 0.00 in    
Sea Level Pressure  
Sea Level Pressure 29.69 in    
Wind  
Wind Speed 8 mph (West)    
Max Wind Speed 16 mph    
Max Gust Speed 23 mph    
Visibility 8 miles    
Events Rain    
T = Trace of Precipitation, MM = Missing Value Source: NWS Daily Summary

Daily Weather History Graph

Daily Weather History Graph

Search for Another Location

Airport or City:

Trip Planner

Search our weather history database for the weather conditions in past years. The results will help you decide how hot, cold, wet, or windy it might be!

Date:

Astronomy

Aug. 14, 2014 Rise Set
Actual Time 5:44 AM EDT 7:46 PM EDT
Civil Twilight 5:13 AM EDT 8:17 PM EDT
Nautical Twilight 4:35 AM EDT 8:55 PM EDT
Astronomical Twilight 3:53 AM EDT 9:37 PM EDT
Moon 9:56 PM EDT (8/14) 10:27 AM EDT (8/14)
Length of Visible Light 15h 04m
Length of Day
14h 01m
Waning Gibbous, 79% of the Moon is Illuminated
Aug 14
Waning Gibbous
Aug 17
Last Quarter
Aug 25
New
Sep 2
First Quarter
Sep 8
Full

Hourly Weather History & Observations

Time (EDT) Temp. Dew Point Humidity Pressure Visibility Wind Dir Wind Speed Gust Speed Precip Events Conditions
12:15 AM 64.9 °F 64.0 °F 97% 29.61 in 4.0 mi East 5.8 mph - 0.02 in Rain Light Rain
12:39 AM 64.9 °F 64.0 °F 97% 29.61 in 2.5 mi East 5.8 mph - 0.02 in Rain Light Rain
12:51 AM 64.9 °F 64.0 °F 97% 29.60 in 2.0 mi ENE 5.8 mph - 0.04 in Rain Light Rain
1:28 AM 64.9 °F 64.0 °F 97% 29.59 in 2.0 mi Calm Calm - 0.01 in   Overcast
1:40 AM 64.9 °F 64.0 °F 97% 29.59 in 4.0 mi Calm Calm - 0.01 in   Overcast
1:48 AM 64.4 °F 64.4 °F 100% 29.60 in 1.8 mi Calm Calm - N/A   Overcast
1:51 AM 64.9 °F 64.0 °F 97% 29.60 in 1.8 mi Calm Calm - 0.01 in Rain Light Rain
1:58 AM 64.9 °F 64.0 °F 97% 29.60 in 3.0 mi West 4.6 mph - 0.00 in Rain Light Rain
2:33 AM 64.9 °F 64.0 °F 97% 29.60 in 2.5 mi SW 4.6 mph - 0.00 in   Overcast
2:46 AM 64.4 °F 62.6 °F 94% 29.60 in 3.0 mi West 8.1 mph - 0.00 in Rain Light Rain
2:51 AM 64.9 °F 63.0 °F 93% 29.60 in 4.0 mi West 8.1 mph - 0.00 in   Overcast
3:23 AM 63.0 °F 62.1 °F 97% 29.61 in 10.0 mi West 10.4 mph - N/A   Overcast
3:51 AM 63.0 °F 61.0 °F 93% 29.61 in 10.0 mi WNW 10.4 mph - N/A   Mostly Cloudy
4:10 AM 63.0 °F 61.0 °F 93% 29.61 in 10.0 mi West 6.9 mph - N/A   Mostly Cloudy
4:51 AM 62.1 °F 60.1 °F 93% 29.62 in 10.0 mi West 8.1 mph - N/A   Overcast
5:05 AM 62.1 °F 60.1 °F 93% 29.62 in 10.0 mi West 5.8 mph - N/A   Overcast
5:28 AM 62.1 °F 60.1 °F 93% 29.63 in 10.0 mi West 5.8 mph - N/A   Mostly Cloudy
5:51 AM 62.1 °F 60.1 °F 93% 29.64 in 10.0 mi WSW 4.6 mph - N/A   Mostly Cloudy
6:00 AM 61.0 °F 60.1 °F 97% 29.64 in 10.0 mi WSW 6.9 mph - N/A   Scattered Clouds
6:51 AM 63.0 °F 60.1 °F 90% 29.66 in 10.0 mi West 8.1 mph - N/A   Partly Cloudy
7:51 AM 64.9 °F 59.0 °F 81% 29.68 in 10.0 mi West 6.9 mph - N/A   Partly Cloudy
8:51 AM 66.0 °F 57.9 °F 75% 29.69 in 10.0 mi WSW 11.5 mph - N/A   Partly Cloudy
9:51 AM 68.0 °F 57.9 °F 70% 29.71 in 10.0 mi WSW 11.5 mph - N/A   Partly Cloudy
10:51 AM 71.6 °F 59.0 °F 64% 29.72 in 10.0 mi West 11.5 mph - N/A   Scattered Clouds
11:51 AM 72.0 °F 59.0 °F 64% 29.71 in 10.0 mi West 6.9 mph - N/A   Scattered Clouds
12:51 PM 73.0 °F 57.9 °F 59% 29.71 in 10.0 mi WSW 9.2 mph - N/A   Scattered Clouds
1:51 PM 73.9 °F 57.0 °F 55% 29.72 in 10.0 mi West 10.4 mph - N/A   Mostly Cloudy
2:51 PM 73.4 °F 53.6 °F 50% 29.73 in 10.0 mi West 15.0 mph - N/A   Mostly Cloudy
3:51 PM 73.9 °F 52.0 °F 46% 29.74 in 10.0 mi WSW 13.8 mph 23.0 mph N/A   Scattered Clouds
4:51 PM 73.4 °F 50.0 °F 44% 29.75 in 10.0 mi WSW 13.8 mph - N/A   Scattered Clouds
5:51 PM 72.0 °F 48.9 °F 44% 29.77 in 10.0 mi West 11.5 mph 18.4 mph N/A   Partly Cloudy
6:51 PM 71.1 °F 48.9 °F 45% 29.79 in 10.0 mi WSW 9.2 mph - N/A   Scattered Clouds
7:51 PM 66.9 °F 48.9 °F 52% 29.80 in 10.0 mi WSW 6.9 mph - N/A   Scattered Clouds
8:51 PM 64.0 °F 51.1 °F 63% 29.83 in 10.0 mi West 6.9 mph - N/A   Overcast
9:51 PM 63.0 °F 51.1 °F 65% 29.84 in 10.0 mi WNW 3.5 mph - N/A   Scattered Clouds
10:51 PM 60.8 °F 51.8 °F 72% 29.85 in 10.0 mi West 6.9 mph - N/A   Scattered Clouds
11:51 PM 57.2 °F 50.0 °F 77% 29.86 in 10.0 mi West 3.5 mph - N/A   Scattered Clouds